TimeCEST,TemperatureF,Dew PointF,Humidity,Sea Level PressureIn,VisibilityMPH,Wind Direction,Wind SpeedMPH,Gust SpeedMPH,PrecipitationIn,Events,Conditions,WindDirDegrees,DateUTC
12:55 AM,66.2,64.4,94,30.06,-9999.0,East,2.3,-,N/A,,Clear,80,2013-09-01 22:55:00
1:55 AM,64.4,60.8,88,30.06,-9999.0,NE,4.6,-,N/A,,Clear,40,2013-09-01 23:55:00
2:00 AM,64,61,87,30.08,9,NE,4.6,,,,,40,2013-09-02 00:00:00
2:55 AM,64.4,60.8,88,30.06,-9999.0,North,2.3,-,N/A,,Clear,360,2013-09-02 00:55:00
3:55 AM,64.4,60.8,88,30.06,6.2,NNE,4.6,-,N/A,,Partly Cloudy,20,2013-09-02 01:55:00
4:55 AM,64.4,60.8,88,30.06,-9999.0,NE,5.8,-,N/A,,Clear,40,2013-09-02 02:55:00
5:55 AM,62.6,57.2,82,30.06,-9999.0,North,4.6,-,N/A,,Clear,10,2013-09-02 03:55:00
6:55 AM,60.8,57.2,88,30.06,-9999.0,North,6.9,-,N/A,,Clear,10,2013-09-02 04:55:00
7:55 AM,66.2,60.8,83,30.06,-9999.0,NE,5.8,-,N/A,,Clear,40,2013-09-02 05:55:00
8:55 AM,71.6,60.8,69,30.06,-9999.0,NE,10.4,-,N/A,,Clear,40,2013-09-02 06:55:00
9:55 AM,75.2,60.8,61,30.09,-9999.0,NE,10.4,-,N/A,,Clear,50,2013-09-02 07:55:00
10:55 AM,80.6,60.8,51,30.09,-9999.0,NNE,6.9,-,N/A,,Clear,30,2013-09-02 08:55:00
11:00 AM,81,60,39,30.12,12,NNE,6.9,,,,,30,2013-09-02 09:00:00
11:55 AM,82.4,55.4,39,30.09,-9999.0,NE,5.8,-,N/A,,Clear,40,2013-09-02 09:55:00
12:55 PM,86.0,55.4,35,30.09,6.2,NE,5.8,-,N/A,,Partly Cloudy,40,2013-09-02 10:55:00
1:55 PM,86.0,57.2,37,30.09,6.2,ENE,4.6,-,N/A,,Partly Cloudy,70,2013-09-02 11:55:00
2:00 PM,87,57,25,30.10,12,ENE,4.6,,,,,70,2013-09-02 12:00:00
2:55 PM,87.8,59.0,38,30.06,6.2,West,5.8,-,N/A,,Partly Cloudy,280,2013-09-02 12:55:00
3:55 PM,84.2,64.4,51,30.06,6.2,West,11.5,-,N/A,,Partly Cloudy,280,2013-09-02 13:55:00
4:55 PM,82.4,64.4,54,30.06,6.2,West,11.5,-,N/A,,Partly Cloudy,270,2013-09-02 14:55:00
5:00 PM,82,65,46,30.08,12,West,11.5,,,,Scattered Clouds,270,2013-09-02 15:00:00
5:55 PM,80.6,66.2,61,30.06,6.2,West,10.4,-,N/A,,Partly Cloudy,280,2013-09-02 15:55:00
6:55 PM,77.0,71.6,83,30.09,-9999.0,West,8.1,-,N/A,,Clear,270,2013-09-02 16:55:00
7:55 PM,75.2,71.6,89,30.09,-9999.0,West,4.6,-,N/A,,Clear,270,2013-09-02 17:55:00
8:00 PM,75,72,88,30.10,12,West,4.6,,,,,270,2013-09-02 18:00:00
8:55 PM,71.6,68.0,88,30.12,-9999.0,Calm,Calm,-,N/A,,Clear,0,2013-09-02 18:55:00
9:55 PM,71.6,69.8,94,30.12,-9999.0,ESE,2.3,-,N/A,,Clear,110,2013-09-02 19:55:00
10:55 PM,68.0,66.2,94,30.12,-9999.0,ENE,3.5,-,N/A,,Clear,60,2013-09-02 20:55:00
11:00 PM,69,67,91,30.14,12,ENE,3.5,,,,,60,2013-09-02 21:00:00
11:55 PM,68.0,66.2,94,30.15,6.2,NE,3.5,-,N/A,,Scattered Clouds,50,2013-09-02 21:55:00